Location: Unspecified
(38.0989°N, 0.6729°W)
Time: 01:57:39
(UTC+02:00)

Tiangong 2 - Visible Passes

Search period start: 23 June 2017 00:00
Search period end: 03 July 2017 00:00
Orbit: 391 x 396 km, 42.8° (Epoch: 21 June)

Date Brightness Start Highest point End Pass type
(mag) Time Alt. Az. Time Alt. Az. Time Alt. Az.
25 Jun 3.9 06:07:46 10° SSE 06:08:27 11° SE 06:09:09 10° SE visible
27 Jun 2.9 05:48:59 10° SSW 05:51:31 21° SE 05:54:04 10° E visible
28 Jun 3.6 04:54:39 12° SE 04:54:50 12° SE 04:56:15 10° ESE visible
29 Jun 1.8 05:32:38 20° SSW 05:34:30 43° SSE 05:37:34 10° ENE visible
30 Jun 2.8 04:38:10 23° SE 04:38:10 23° SE 04:40:21 10° E visible
30 Jun 1.5 06:11:12 10° W 06:14:24 63° NNW 06:17:36 10° ENE visible
01 Jul 1.0 05:15:59 31° WSW 05:17:23 84° SSE 05:20:37 10° ENE visible
02 Jul 2.4 04:21:21 34° E 04:21:21 34° E 04:23:30 10° ENE visible
02 Jul 2.1 05:54:16 10° W 05:57:21 42° NNW 06:00:27 10° ENE visible
